ACA896 CYYZ-LGAV

Flight info

Callsign ACA896
Flight time N/A
Altitude 33000
Route VERDO7 LORKA Q907 MIILS N285B NICSO/M084F340 NATS BEXET/N0479F350 DCT DIRUM DCT MORAG DCT NUCHU L607 BIG UL9 KONAN DCT KOK DCT RITAX DCT BANUX DCT BABEG DCT KUMOM DCT DEVUL/N0476F370 DCT LIKVI DCT REMSO DCT MEDUX UM867 KOGAT DCT TALAS UM749 ROPOX ROPO1Q
Aircraft B77W/H-SDE1E2E3FGHIJ2J3J4J5M1RWXY/LB1D1

Departure

Time N/A
Airport Toronto Pearson International Airport (CYYZ)

Arrival

Time 2026-05-05 10:36
Airport Athens Eleftherios Venizelos International Airport (LGAV)
Time Latitude Longitude Altitude Speed Heading
2026-05-05 01:32 44.44133 -76.96525 32704 ft 518 kts 53°
2026-05-05 01:32 44.47950 -76.87911 32716 ft 518 kts 53°
2026-05-05 01:33 44.51749 -76.79313 32714 ft 519 kts 53°
2026-05-05 01:33 44.55522 -76.70745 32712 ft 520 kts 53°
2026-05-05 01:34 44.59318 -76.62098 32711 ft 521 kts 53°
2026-05-05 01:34 44.63111 -76.53433 32706 ft 521 kts 53°
2026-05-05 01:35 44.66905 -76.44739 32696 ft 522 kts 53°
2026-05-05 01:35 44.70695 -76.36025 32696 ft 522 kts 53°
2026-05-05 01:36 44.74475 -76.27311 32696 ft 522 kts 54°
2026-05-05 01:36 44.77908 -76.18255 32695 ft 529 kts 64°
2026-05-05 01:37 44.80438 -76.08502 32691 ft 531 kts 66°
2026-05-05 01:37 44.82886 -75.98752 32696 ft 531 kts 66°
2026-05-05 01:38 44.85382 -75.88970 32689 ft 530 kts 66°
2026-05-05 01:38 44.87897 -75.79190 32685 ft 530 kts 66°
2026-05-05 01:39 44.90404 -75.69417 32697 ft 530 kts 66°
2026-05-05 01:39 44.92902 -75.59629 32688 ft 530 kts 66°
2026-05-05 01:40 44.95387 -75.49838 32687 ft 529 kts 66°
2026-05-05 01:40 44.97866 -75.40030 32684 ft 529 kts 66°
2026-05-05 01:41 45.00314 -75.30305 32693 ft 528 kts 66°
2026-05-05 01:41 45.02763 -75.20536 32701 ft 528 kts 66°
2026-05-05 01:42 45.05166 -75.10904 32691 ft 527 kts 66°
2026-05-05 01:42 45.07595 -75.01134 32692 ft 526 kts 66°
2026-05-05 01:43 45.10016 -74.91351 32679 ft 526 kts 66°
2026-05-05 01:43 45.12424 -74.81579 32691 ft 525 kts 66°
2026-05-05 01:44 45.14857 -74.71891 32697 ft 525 kts 65°
2026-05-05 01:44 45.17461 -74.62238 32690 ft 525 kts 64°
2026-05-05 01:45 45.20090 -74.52570 32679 ft 525 kts 64°
2026-05-05 01:45 45.22686 -74.42881 32675 ft 526 kts 64°
2026-05-05 01:46 45.25259 -74.33165 32699 ft 526 kts 64°
2026-05-05 01:46 45.27819 -74.23439 32717 ft 525 kts 64°
2026-05-05 01:47 45.30372 -74.13709 32684 ft 525 kts 64°
2026-05-05 01:47 45.32895 -74.04060 32697 ft 524 kts 64°
2026-05-05 01:48 45.35427 -73.94338 32701 ft 524 kts 65°
2026-05-05 01:48 45.37949 -73.84615 32699 ft 524 kts 65°
2026-05-05 01:49 45.40462 -73.74886 32731 ft 524 kts 64°
2026-05-05 01:49 45.42973 -73.65123 32703 ft 525 kts 65°
2026-05-05 01:50 45.45476 -73.55350 32712 ft 525 kts 65°
2026-05-05 01:50 45.47972 -73.45564 32713 ft 526 kts 65°
2026-05-05 01:51 45.50459 -73.35764 32713 ft 525 kts 65°
2026-05-05 01:51 45.52931 -73.25988 32710 ft 524 kts 65°
2026-05-05 01:52 45.55394 -73.16204 32720 ft 523 kts 65°
2026-05-05 01:52 45.57831 -73.06488 32719 ft 523 kts 65°
2026-05-05 01:53 45.60271 -72.96713 32731 ft 522 kts 65°
2026-05-05 01:53 45.62701 -72.86933 32728 ft 522 kts 65°
2026-05-05 01:54 45.65120 -72.77162 32725 ft 521 kts 65°
2026-05-05 01:54 45.67531 -72.67381 32734 ft 522 kts 65°
2026-05-05 01:55 45.69938 -72.57574 32741 ft 523 kts 65°
2026-05-05 01:55 45.72324 -72.47808 32740 ft 523 kts 65°
2026-05-05 01:56 45.74718 -72.37965 32740 ft 524 kts 65°
2026-05-05 01:56 45.77106 -72.28106 32735 ft 524 kts 65°
2026-05-05 01:57 45.79484 -72.18242 32742 ft 524 kts 65°
2026-05-05 01:57 45.81855 -72.08365 32757 ft 525 kts 65°
2026-05-05 01:58 45.84224 -71.98452 32765 ft 525 kts 65°
2026-05-05 01:58 45.86584 -71.88535 32771 ft 525 kts 65°
2026-05-05 01:59 45.88935 -71.78606 32762 ft 526 kts 65°
2026-05-05 01:59 45.90885 -71.70340 32797 ft 525 kts 65°
2026-05-05 02:00 45.93222 -71.60391 32778 ft 525 kts 65°
2026-05-05 02:00 45.95548 -71.50441 32799 ft 525 kts 64°
2026-05-05 02:01 45.97852 -71.40541 32785 ft 525 kts 65°
2026-05-05 02:01 46.00158 -71.30594 32791 ft 524 kts 65°
2026-05-05 02:02 46.02452 -71.20647 32783 ft 524 kts 65°
2026-05-05 02:02 46.04739 -71.10690 32795 ft 524 kts 65°
2026-05-05 02:03 46.07021 -71.00703 32802 ft 525 kts 65°
2026-05-05 02:03 46.09295 -70.90705 32790 ft 525 kts 65°
2026-05-05 02:04 46.11562 -70.80689 32795 ft 525 kts 65°
2026-05-05 02:04 46.13818 -70.70677 32784 ft 525 kts 65°
2026-05-05 02:05 46.16048 -70.60736 32793 ft 525 kts 65°
2026-05-05 02:05 46.18290 -70.50692 32796 ft 525 kts 65°
2026-05-05 02:06 46.20518 -70.40663 32793 ft 524 kts 65°
2026-05-05 02:06 46.22735 -70.30639 32792 ft 524 kts 65°
2026-05-05 02:07 46.24930 -70.20615 32798 ft 523 kts 65°
2026-05-05 02:07 46.27072 -70.10561 32814 ft 523 kts 66°
2026-05-05 02:08 46.29199 -70.00488 32808 ft 523 kts 65°
2026-05-05 02:08 46.31320 -69.90424 32793 ft 523 kts 65°
2026-05-05 02:09 46.33433 -69.80364 32792 ft 522 kts 66°
2026-05-05 02:09 46.35528 -69.70351 32794 ft 521 kts 66°
2026-05-05 02:10 46.37621 -69.60301 32815 ft 520 kts 66°
2026-05-05 02:10 46.39703 -69.50250 32833 ft 521 kts 66°
2026-05-05 02:11 46.41774 -69.40198 32806 ft 520 kts 66°
2026-05-05 02:11 46.43822 -69.30210 32797 ft 519 kts 66°
2026-05-05 02:12 46.46889 -69.15148 32811 ft 519 kts 66°
2026-05-05 02:13 46.48924 -69.05101 32824 ft 519 kts 66°
2026-05-05 02:13 46.50953 -68.95035 32804 ft 520 kts 66°
2026-05-05 02:14 46.52974 -68.84952 32788 ft 521 kts 66°
2026-05-05 02:14 46.54990 -68.74837 32787 ft 521 kts 66°
2026-05-05 02:15 46.57001 -68.64696 32776 ft 522 kts 66°
2026-05-05 02:15 46.59002 -68.54552 32783 ft 522 kts 66°
2026-05-05 02:16 46.60986 -68.44453 32788 ft 525 kts 67°
2026-05-05 02:16 46.62984 -68.34220 32787 ft 526 kts 67°
2026-05-05 02:17 46.64978 -68.23953 32819 ft 528 kts 67°
2026-05-05 02:17 46.66967 -68.13651 32820 ft 528 kts 67°
2026-05-05 02:18 46.68946 -68.03347 32777 ft 528 kts 67°
2026-05-05 02:18 46.70905 -67.93099 32797 ft 528 kts 68°
2026-05-05 02:19 46.72871 -67.82756 32771 ft 529 kts 68°
2026-05-05 02:19 46.74828 -67.72417 32764 ft 529 kts 68°
2026-05-05 02:20 46.76780 -67.62080 32772 ft 528 kts 68°
2026-05-05 02:20 46.78724 -67.51729 32770 ft 528 kts 68°
2026-05-05 02:21 46.80644 -67.41445 32795 ft 528 kts 68°
2026-05-05 02:21 46.82565 -67.31101 32768 ft 527 kts 69°
2026-05-05 02:22 46.84471 -67.20771 32772 ft 525 kts 69°
2026-05-05 02:22 46.86359 -67.10497 32746 ft 523 kts 69°
2026-05-05 02:23 46.88004 -67.00138 32776 ft 526 kts 75°
2026-05-05 02:23 46.89119 -66.89540 32773 ft 527 kts 77°
2026-05-05 02:24 46.90193 -66.78923 32814 ft 528 kts 76°
2026-05-05 02:24 46.91285 -66.68363 32765 ft 529 kts 77°
2026-05-05 02:25 46.92397 -66.57729 32750 ft 529 kts 77°
2026-05-05 02:25 46.93503 -66.47103 32752 ft 529 kts 77°
2026-05-05 02:26 46.94602 -66.36435 32751 ft 530 kts 77°
2026-05-05 02:26 46.95690 -66.25736 32754 ft 531 kts 77°
2026-05-05 02:27 46.96769 -66.15030 32749 ft 532 kts 77°
2026-05-05 02:27 46.97840 -66.04304 32757 ft 532 kts 78°
2026-05-05 02:28 46.98899 -65.93581 32744 ft 530 kts 79°
2026-05-05 02:28 46.99936 -65.82974 32730 ft 527 kts 79°
2026-05-05 02:29 47.00963 -65.72369 32730 ft 525 kts 79°
2026-05-05 02:29 47.01977 -65.61800 32726 ft 523 kts 79°
2026-05-05 02:30 47.02981 -65.51246 32728 ft 522 kts 79°
2026-05-05 02:30 47.03976 -65.40677 32729 ft 524 kts 79°
2026-05-05 02:31 47.04965 -65.30062 32731 ft 526 kts 80°
2026-05-05 02:31 47.05938 -65.19493 32720 ft 526 kts 80°
2026-05-05 02:32 47.06907 -65.08849 32721 ft 527 kts 80°
2026-05-05 02:32 47.07870 -64.98180 32723 ft 527 kts 80°
2026-05-05 02:33 47.08823 -64.87511 32721 ft 527 kts 81°
2026-05-05 02:33 47.09765 -64.76836 32725 ft 528 kts 81°
2026-05-05 02:34 47.10699 -64.66145 32742 ft 528 kts 81°
2026-05-05 02:34 47.11621 -64.55463 32720 ft 527 kts 81°
2026-05-05 02:35 47.12531 -64.44800 32727 ft 525 kts 81°
2026-05-05 02:35 47.13431 -64.34154 32720 ft 525 kts 82°
2026-05-05 02:36 47.14319 -64.23518 32727 ft 524 kts 82°
2026-05-05 02:36 47.15198 -64.12872 32712 ft 525 kts 82°
2026-05-05 02:37 47.16061 -64.02296 32694 ft 525 kts 82°
2026-05-05 02:37 47.16922 -63.91623 32698 ft 526 kts 82°
2026-05-05 02:38 47.17772 -63.80957 32677 ft 526 kts 82°
2026-05-05 02:38 47.18612 -63.70281 32679 ft 525 kts 82°
2026-05-05 02:39 47.19441 -63.59617 32686 ft 525 kts 82°
2026-05-05 02:39 47.20261 -63.48952 32687 ft 525 kts 82°
2026-05-05 02:40 47.21071 -63.38280 32691 ft 525 kts 83°
2026-05-05 02:40 47.21871 -63.27603 32709 ft 525 kts 83°
2026-05-05 02:41 47.22656 -63.16985 32701 ft 525 kts 83°
2026-05-05 02:41 47.23436 -63.06307 32709 ft 524 kts 83°
2026-05-05 02:42 47.24206 -62.95635 32704 ft 524 kts 83°
2026-05-05 02:42 47.24965 -62.84954 32708 ft 524 kts 83°
2026-05-05 02:43 47.25715 -62.74265 32707 ft 524 kts 84°
2026-05-05 02:43 47.26450 -62.63650 32704 ft 525 kts 84°
2026-05-05 02:44 47.27180 -62.52965 32716 ft 524 kts 84°
2026-05-05 02:44 47.27900 -62.42288 32690 ft 524 kts 84°
2026-05-05 02:45 47.28609 -62.31595 32697 ft 524 kts 84°
2026-05-05 02:45 47.29308 -62.20914 32700 ft 524 kts 84°
2026-05-05 02:46 47.29997 -62.10227 32694 ft 524 kts 84°
2026-05-05 02:46 47.30677 -61.99530 32690 ft 524 kts 84°
2026-05-05 02:47 47.31347 -61.88841 32690 ft 525 kts 85°
2026-05-05 02:47 47.31896 -61.79941 32665 ft 525 kts 85°
2026-05-05 02:48 47.32655 -61.67460 32656 ft 525 kts 85°
2026-05-05 02:48 47.33296 -61.56733 32657 ft 525 kts 85°
2026-05-05 02:49 47.33825 -61.47743 32655 ft 525 kts 85°
2026-05-05 02:49 47.34444 -61.37086 32669 ft 525 kts 85°
2026-05-05 02:50 47.35057 -61.26355 32679 ft 525 kts 86°
2026-05-05 02:50 47.35659 -61.15621 32680 ft 525 kts 86°
2026-05-05 02:51 47.36252 -61.04880 32690 ft 526 kts 86°
2026-05-05 02:51 47.36835 -60.94133 32673 ft 526 kts 86°
2026-05-05 02:52 47.37410 -60.83361 32686 ft 527 kts 86°
2026-05-05 02:52 47.37975 -60.72564 32685 ft 528 kts 86°
2026-05-05 02:53 47.38528 -60.61792 32688 ft 530 kts 86°
2026-05-05 02:53 47.39075 -60.50949 32687 ft 530 kts 86°
2026-05-05 02:54 47.39613 -60.40089 32689 ft 530 kts 87°
2026-05-05 02:54 47.40141 -60.29215 32689 ft 531 kts 87°
2026-05-05 02:55 47.40659 -60.18337 32691 ft 531 kts 87°
2026-05-05 02:55 47.41166 -60.07463 32688 ft 531 kts 87°
2026-05-05 02:56 47.41663 -59.96577 32689 ft 531 kts 87°
2026-05-05 02:56 47.42149 -59.85719 32693 ft 530 kts 88°
2026-05-05 02:57 47.42622 -59.74918 32693 ft 530 kts 88°
2026-05-05 02:57 47.43087 -59.64050 32699 ft 530 kts 88°
2026-05-05 02:58 47.43542 -59.53197 32686 ft 529 kts 88°
2026-05-05 02:58 47.43986 -59.42337 32672 ft 529 kts 88°
2026-05-05 02:59 47.44420 -59.31484 32691 ft 529 kts 88°
2026-05-05 02:59 47.44844 -59.20624 32689 ft 529 kts 88°
2026-05-05 03:00 47.45257 -59.09767 32689 ft 530 kts 88°
2026-05-05 03:00 47.45658 -58.98949 32695 ft 530 kts 88°
2026-05-05 03:01 47.46052 -58.88063 32688 ft 530 kts 89°
2026-05-05 03:01 47.46435 -58.77196 32685 ft 529 kts 89°
2026-05-05 03:02 47.46807 -58.66336 32682 ft 529 kts 89°
2026-05-05 03:02 47.47169 -58.55483 32691 ft 528 kts 89°
2026-05-05 03:03 47.47520 -58.44632 32692 ft 528 kts 89°
2026-05-05 03:03 47.47861 -58.33796 32688 ft 528 kts 89°
2026-05-05 03:04 47.48190 -58.23009 32703 ft 529 kts 89°
2026-05-05 03:04 47.48510 -58.12139 32692 ft 530 kts 89°
2026-05-05 03:05 47.48822 -58.01235 32690 ft 531 kts 90°
2026-05-05 03:05 47.49124 -57.90322 32664 ft 531 kts 90°
2026-05-05 03:06 47.49416 -57.79402 32685 ft 532 kts 90°
2026-05-05 03:06 47.49698 -57.68444 32693 ft 533 kts 90°
2026-05-05 03:07 47.49969 -57.57478 32693 ft 534 kts 90°
2026-05-05 03:07 47.50229 -57.46589 32700 ft 533 kts 90°
2026-05-05 03:08 47.50480 -57.35638 32698 ft 533 kts 91°
2026-05-05 03:08 47.50720 -57.24677 32694 ft 533 kts 91°
2026-05-05 03:09 47.50950 -57.13709 32701 ft 533 kts 91°
2026-05-05 03:09 47.51169 -57.02737 32698 ft 534 kts 91°
2026-05-05 03:10 47.51378 -56.91757 32670 ft 534 kts 91°
2026-05-05 03:10 47.51578 -56.80759 32673 ft 534 kts 91°
2026-05-05 03:11 47.51766 -56.69764 32673 ft 535 kts 91°
2026-05-05 03:11 47.51944 -56.58752 32633 ft 535 kts 91°
2026-05-05 03:12 47.52112 -56.47730 32635 ft 535 kts 91°
2026-05-05 03:12 47.52268 -56.36789 32575 ft 535 kts 92°
2026-05-05 03:13 47.52415 -56.25764 32597 ft 536 kts 92°
2026-05-05 03:13 47.52551 -56.14724 32598 ft 537 kts 92°
2026-05-05 03:14 47.52674 -56.03663 32578 ft 538 kts 92°
2026-05-05 03:14 47.52792 -55.92581 32565 ft 538 kts 92°
2026-05-05 03:15 47.52899 -55.81502 32571 ft 538 kts 92°
2026-05-05 03:15 47.52991 -55.70498 32577 ft 539 kts 93°
2026-05-05 03:16 47.53075 -55.59420 32589 ft 538 kts 93°
2026-05-05 03:16 47.53148 -55.48335 32629 ft 539 kts 93°
2026-05-05 03:17 47.53211 -55.37251 32641 ft 538 kts 93°
2026-05-05 03:17 47.53263 -55.26177 32670 ft 539 kts 93°
2026-05-05 03:18 47.53302 -55.15083 32722 ft 540 kts 93°
2026-05-05 03:18 47.53332 -55.03961 32720 ft 541 kts 94°
2026-05-05 03:19 47.53358 -54.87264 32731 ft 541 kts 94°
2026-05-05 03:19 47.53362 -54.76109 32736 ft 542 kts 94°
2026-05-05 03:20 47.53354 -54.64951 32733 ft 543 kts 94°
2026-05-05 03:20 47.53336 -54.53831 32734 ft 543 kts 94°
2026-05-05 03:21 47.53307 -54.42645 32719 ft 544 kts 94°
2026-05-05 03:21 47.53268 -54.31464 32675 ft 543 kts 94°
2026-05-05 03:22 47.53217 -54.20290 32709 ft 543 kts 94°
2026-05-05 03:22 47.53155 -54.09117 32716 ft 543 kts 95°
2026-05-05 03:23 47.53082 -53.97931 32705 ft 544 kts 95°
2026-05-05 03:23 47.52999 -53.86732 32715 ft 544 kts 95°
2026-05-05 03:24 47.52905 -53.75593 32708 ft 544 kts 95°
2026-05-05 03:24 47.52801 -53.64399 32714 ft 544 kts 95°
2026-05-05 03:25 47.52684 -53.53209 32729 ft 544 kts 95°
2026-05-05 03:25 47.52556 -53.42012 32727 ft 544 kts 95°
2026-05-05 03:26 47.52419 -53.30810 32707 ft 544 kts 95°
2026-05-05 03:26 47.52271 -53.19662 32743 ft 544 kts 95°
2026-05-05 03:27 47.52111 -53.08527 32741 ft 545 kts 95°
2026-05-05 03:27 47.51940 -52.97300 32734 ft 545 kts 95°
2026-05-05 03:28 47.51759 -52.86080 32733 ft 546 kts 96°
2026-05-05 03:28 47.51566 -52.74859 32731 ft 546 kts 96°
2026-05-05 03:29 47.51361 -52.63604 32736 ft 548 kts 96°
2026-05-05 03:29 47.51145 -52.52328 32748 ft 549 kts 96°
2026-05-05 03:30 47.50917 -52.41020 32783 ft 551 kts 96°
2026-05-05 03:30 47.50679 -52.29690 32771 ft 551 kts 96°
2026-05-05 03:31 47.50431 -52.18425 32803 ft 552 kts 96°
2026-05-05 03:31 47.50245 -52.07076 32826 ft 555 kts 91°
2026-05-05 03:32 47.51311 -51.95719 32850 ft 562 kts 79°
2026-05-05 03:32 47.53799 -51.84689 33263 ft 565 kts 70°
2026-05-05 03:33 47.55244 -51.79309 33755 ft 560 kts 69°
2026-05-05 03:33 47.56685 -51.73951 33876 ft 562 kts 70°
2026-05-05 03:33 47.59533 -51.63162 33811 ft 560 kts 70°
2026-05-05 03:34 47.62301 -51.52409 33847 ft 565 kts 70°
2026-05-05 03:34 47.65085 -51.41465 33873 ft 568 kts 71°
2026-05-05 03:35 47.67857 -51.30536 33843 ft 561 kts 71°
2026-05-05 03:35 47.70592 -51.19720 33853 ft 558 kts 71°
2026-05-05 03:36 47.73312 -51.08914 33862 ft 558 kts 71°
2026-05-05 03:36 47.76005 -50.98159 33864 ft 558 kts 71°
2026-05-05 03:37 47.78705 -50.87329 33857 ft 558 kts 71°
2026-05-05 03:37 47.81394 -50.76492 33857 ft 558 kts 71°
2026-05-05 03:38 47.84075 -50.65630 33872 ft 558 kts 71°
2026-05-05 03:38 47.86293 -50.56606 33872 ft 559 kts 71°
2026-05-05 03:39 47.89391 -50.43938 33865 ft 559 kts 71°
2026-05-05 03:39 47.92043 -50.33040 33874 ft 559 kts 71°
2026-05-05 03:40 47.94237 -50.23978 33873 ft 559 kts 71°
2026-05-05 03:40 47.96862 -50.13092 33884 ft 556 kts 71°
2026-05-05 03:41 47.99467 -50.02240 33861 ft 554 kts 71°
2026-05-05 03:41 48.02102 -49.91460 33874 ft 552 kts 70°
2026-05-05 03:42 48.04815 -49.80741 33834 ft 550 kts 70°
2026-05-05 03:42 48.07513 -49.70063 33871 ft 549 kts 70°
2026-05-05 03:43 48.10188 -49.59350 33898 ft 549 kts 71°
2026-05-05 03:43 48.12826 -49.48693 33886 ft 550 kts 71°
2026-05-05 03:44 48.15476 -49.37927 33884 ft 551 kts 71°
2026-05-05 03:44 48.18117 -49.27156 33882 ft 550 kts 71°
2026-05-05 03:45 48.20743 -49.16397 33894 ft 549 kts 71°
2026-05-05 03:45 48.23354 -49.05644 33892 ft 548 kts 71°
2026-05-05 03:46 48.25953 -48.94895 33905 ft 547 kts 71°
2026-05-05 03:46 48.28517 -48.84232 33868 ft 546 kts 71°
2026-05-05 03:47 48.31089 -48.73485 33904 ft 547 kts 71°
2026-05-05 03:47 48.33659 -48.62694 33919 ft 549 kts 71°
2026-05-05 03:48 48.36226 -48.51864 33911 ft 551 kts 72°
2026-05-05 03:48 48.38793 -48.40981 33927 ft 551 kts 72°
2026-05-05 03:49 48.41348 -48.30088 33924 ft 551 kts 72°
2026-05-05 03:49 48.43874 -48.19272 33923 ft 550 kts 72°
2026-05-05 03:50 48.46399 -48.08403 33935 ft 549 kts 72°
2026-05-05 03:50 48.48906 -47.97559 33931 ft 546 kts 72°
2026-05-05 03:51 48.51389 -47.86761 33930 ft 544 kts 73°
2026-05-05 03:51 48.53854 -47.75983 33930 ft 543 kts 72°
2026-05-05 03:52 48.56310 -47.65197 33951 ft 544 kts 73°
2026-05-05 03:52 48.58763 -47.54365 33943 ft 545 kts 73°
2026-05-05 03:53 48.61208 -47.43512 33943 ft 546 kts 73°
2026-05-05 03:53 48.63644 -47.32649 33950 ft 546 kts 73°
2026-05-05 03:54 48.66054 -47.21843 33970 ft 545 kts 73°
2026-05-05 03:54 48.68465 -47.10977 33946 ft 543 kts 73°
2026-05-05 03:55 48.70856 -47.00145 33952 ft 541 kts 73°
2026-05-05 03:55 48.73226 -46.89352 33970 ft 540 kts 74°
2026-05-05 03:56 48.75583 -46.78560 33940 ft 538 kts 74°
2026-05-05 03:56 48.77924 -46.67789 33967 ft 538 kts 74°
2026-05-05 03:57 48.80258 -46.56986 33979 ft 539 kts 74°
2026-05-05 03:57 48.82588 -46.46150 33977 ft 541 kts 74°
2026-05-05 03:58 48.84896 -46.35362 33975 ft 541 kts 75°
2026-05-05 03:58 48.87211 -46.24484 33974 ft 541 kts 75°
2026-05-05 03:59 48.89513 -46.13608 33974 ft 540 kts 75°
2026-05-05 03:59 48.91801 -46.02737 33977 ft 539 kts 75°
2026-05-05 04:00 48.94077 -45.91870 33976 ft 538 kts 75°
2026-05-05 04:00 48.96332 -45.81041 33981 ft 536 kts 75°
2026-05-05 04:01 48.98573 -45.70220 33981 ft 535 kts 76°
2026-05-05 04:01 49.00784 -45.59484 33994 ft 534 kts 76°
2026-05-05 04:02 49.02995 -45.48695 33991 ft 533 kts 76°
2026-05-05 04:02 49.05191 -45.37919 33996 ft 531 kts 76°
2026-05-05 04:03 49.07371 -45.27161 33992 ft 530 kts 76°
2026-05-05 04:03 49.09539 -45.16404 33999 ft 529 kts 76°
2026-05-05 04:04 49.11691 -45.05668 33998 ft 529 kts 77°
2026-05-05 04:04 49.13831 -44.94935 34004 ft 527 kts 77°
2026-05-05 04:05 49.15954 -44.84227 33999 ft 527 kts 77°
2026-05-05 04:05 49.18067 -44.73507 33976 ft 526 kts 77°
2026-05-05 04:06 49.20169 -44.62783 34008 ft 527 kts 77°
2026-05-05 04:06 49.22257 -44.52073 34019 ft 529 kts 77°
2026-05-05 04:07 49.24355 -44.41250 34017 ft 531 kts 77°
2026-05-05 04:07 49.26448 -44.30392 34018 ft 532 kts 78°
2026-05-05 04:08 49.28535 -44.19511 33997 ft 532 kts 78°
2026-05-05 04:08 49.30595 -44.08709 34009 ft 530 kts 78°
2026-05-05 04:09 49.32646 -43.97890 34015 ft 527 kts 78°
2026-05-05 04:09 49.34676 -43.87112 34030 ft 525 kts 79°
2026-05-05 04:10 49.36692 -43.76347 34023 ft 524 kts 79°
2026-05-05 04:10 49.38692 -43.65618 33998 ft 521 kts 79°
2026-05-05 04:11 49.40671 -43.54927 34018 ft 519 kts 79°
2026-05-05 04:11 49.42634 -43.44254 34029 ft 519 kts 80°
2026-05-05 04:12 49.44590 -43.33566 34032 ft 520 kts 80°
2026-05-05 04:12 49.46538 -43.22866 34032 ft 519 kts 81°
2026-05-05 04:13 49.48456 -43.12264 34027 ft 517 kts 81°
2026-05-05 04:13 49.50382 -43.01561 34027 ft 515 kts 81°
2026-05-05 04:14 49.52267 -42.91016 34033 ft 514 kts 81°
2026-05-05 04:14 49.54151 -42.80419 34015 ft 511 kts 82°
2026-05-05 04:15 49.56012 -42.69895 34022 ft 508 kts 82°
2026-05-05 04:15 49.57850 -42.59426 34010 ft 505 kts 82°
2026-05-05 04:16 49.59671 -42.48997 34026 ft 504 kts 82°
2026-05-05 04:16 49.61482 -42.38549 34036 ft 505 kts 82°
2026-05-05 04:17 49.63288 -42.28081 34029 ft 504 kts 82°
2026-05-05 04:17 49.65083 -42.17619 34037 ft 504 kts 82°
2026-05-05 04:18 49.66871 -42.07131 34036 ft 505 kts 82°
2026-05-05 04:18 49.68637 -41.96718 34036 ft 505 kts 82°
2026-05-05 04:19 49.70403 -41.86234 34014 ft 503 kts 83°
2026-05-05 04:19 49.72156 -41.75769 34032 ft 503 kts 83°
2026-05-05 04:20 49.73897 -41.65304 34033 ft 502 kts 83°
2026-05-05 04:20 49.75627 -41.54840 33979 ft 502 kts 83°
2026-05-05 04:21 49.77348 -41.44370 33989 ft 503 kts 83°
2026-05-05 04:21 49.79059 -41.33899 34025 ft 502 kts 83°
2026-05-05 04:22 49.80764 -41.23392 34026 ft 503 kts 83°
2026-05-05 04:22 49.82448 -41.12959 34024 ft 502 kts 83°
2026-05-05 04:23 49.84133 -41.02449 34021 ft 502 kts 83°
2026-05-05 04:23 49.85805 -40.91952 34016 ft 501 kts 83°
2026-05-05 04:24 49.87465 -40.81465 34027 ft 501 kts 84°
2026-05-05 04:25 49.89939 -40.65711 34027 ft 501 kts 84°
2026-05-05 04:25 49.91577 -40.55192 34028 ft 501 kts 84°
2026-05-05 04:26 49.93204 -40.44669 33993 ft 502 kts 83°
2026-05-05 04:26 49.94828 -40.34099 34043 ft 505 kts 83°
2026-05-05 04:27 49.96182 -40.25244 34051 ft 509 kts 83°
2026-05-05 04:27 49.98080 -40.12749 34057 ft 512 kts 83°
2026-05-05 04:28 49.99437 -40.03765 34055 ft 514 kts 83°
2026-05-05 04:28 50.01610 -39.93105 34069 ft 521 kts 75°
2026-05-05 04:29 50.04298 -39.82628 34048 ft 521 kts 74°
2026-05-05 04:29 50.06978 -39.72180 34052 ft 519 kts 75°
2026-05-05 04:30 50.09587 -39.61801 34026 ft 517 kts 74°
2026-05-05 04:30 50.12169 -39.51389 34061 ft 514 kts 74°
2026-05-05 04:31 50.14732 -39.40994 34074 ft 512 kts 74°
2026-05-05 04:31 50.17272 -39.30647 34079 ft 511 kts 75°
2026-05-05 04:32 50.19805 -39.20287 34056 ft 510 kts 75°
2026-05-05 04:32 50.22324 -39.09935 34102 ft 509 kts 74°
2026-05-05 04:33 50.24827 -38.99607 34106 ft 508 kts 74°
2026-05-05 04:33 50.27304 -38.89338 34101 ft 508 kts 74°
2026-05-05 04:34 50.29787 -38.78989 34112 ft 508 kts 74°
2026-05-05 04:34 50.32261 -38.68629 34127 ft 509 kts 73°
2026-05-05 04:35 50.34733 -38.58236 34135 ft 509 kts 73°
2026-05-05 04:35 50.37198 -38.47818 34143 ft 510 kts 73°
2026-05-05 04:36 50.39658 -38.37369 34150 ft 511 kts 74°
2026-05-05 04:36 50.42090 -38.26989 34142 ft 511 kts 73°
2026-05-05 04:37 50.44536 -38.16501 34161 ft 512 kts 73°
2026-05-05 04:37 50.46974 -38.05997 34169 ft 512 kts 73°
2026-05-05 04:38 50.49403 -37.95478 34167 ft 513 kts 73°
2026-05-05 04:38 50.51828 -37.84924 34169 ft 513 kts 73°
2026-05-05 04:39 50.54244 -37.74358 34192 ft 514 kts 73°
2026-05-05 04:39 50.56655 -37.63763 34191 ft 515 kts 73°
2026-05-05 04:40 50.59058 -37.53146 34194 ft 515 kts 73°
2026-05-05 04:40 50.61453 -37.42510 34187 ft 515 kts 72°
2026-05-05 04:41 50.63839 -37.31863 34206 ft 515 kts 72°
2026-05-05 04:41 50.66211 -37.21228 34212 ft 515 kts 73°
2026-05-05 04:42 50.68560 -37.10638 34212 ft 515 kts 73°
2026-05-05 04:42 50.70912 -36.99976 34205 ft 514 kts 72°
2026-05-05 04:43 50.73258 -36.89290 34221 ft 514 kts 72°
2026-05-05 04:43 50.75591 -36.78611 34233 ft 515 kts 72°
2026-05-05 04:44 50.77918 -36.67903 34238 ft 515 kts 72°
2026-05-05 04:44 50.80234 -36.57189 34244 ft 515 kts 71°
2026-05-05 04:45 50.82537 -36.46482 34238 ft 513 kts 71°
2026-05-05 04:45 50.84823 -36.35791 34238 ft 512 kts 71°
2026-05-05 04:46 50.87091 -36.25132 34251 ft 510 kts 72°
2026-05-05 04:46 50.89331 -36.14548 34274 ft 509 kts 71°
2026-05-05 04:47 50.91569 -36.03920 34257 ft 507 kts 71°
2026-05-05 04:47 50.93787 -35.93332 34265 ft 505 kts 71°
2026-05-05 04:48 50.95990 -35.82759 34267 ft 504 kts 71°
2026-05-05 04:48 50.98181 -35.72187 34272 ft 504 kts 71°
2026-05-05 04:49 51.00363 -35.61604 34282 ft 504 kts 71°
2026-05-05 04:49 51.02535 -35.51011 34281 ft 505 kts 71°
2026-05-05 04:50 51.04702 -35.40389 34284 ft 506 kts 71°
2026-05-05 04:50 51.06861 -35.29745 34290 ft 506 kts 71°
2026-05-05 04:51 51.09019 -35.19048 34290 ft 508 kts 71°
2026-05-05 04:51 51.11161 -35.08376 34286 ft 510 kts 71°
2026-05-05 04:52 51.13310 -34.97607 34291 ft 511 kts 71°
2026-05-05 04:52 51.15456 -34.86794 34298 ft 512 kts 71°
2026-05-05 04:53 51.17596 -34.75947 34297 ft 514 kts 70°
2026-05-05 04:53 51.19738 -34.65037 34310 ft 516 kts 70°
2026-05-05 04:54 51.21874 -34.54094 34313 ft 517 kts 70°
2026-05-05 04:54 51.24000 -34.43134 34310 ft 517 kts 71°
2026-05-05 04:55 51.26115 -34.32162 34318 ft 517 kts 70°
2026-05-05 04:55 51.28209 -34.21244 34309 ft 517 kts 70°
2026-05-05 04:56 51.30303 -34.10267 34314 ft 517 kts 70°
2026-05-05 04:56 51.32387 -33.99274 34324 ft 516 kts 70°
2026-05-05 04:57 51.34459 -33.88281 34338 ft 516 kts 69°
2026-05-05 04:57 51.36521 -33.77280 34327 ft 516 kts 69°
2026-05-05 04:58 51.38573 -33.66262 34326 ft 517 kts 69°
2026-05-05 04:58 51.40617 -33.55220 34329 ft 517 kts 70°
2026-05-05 04:59 51.42651 -33.44174 34356 ft 517 kts 69°
2026-05-05 04:59 51.44666 -33.33162 34341 ft 518 kts 69°
2026-05-05 05:00 51.46685 -33.22055 34336 ft 518 kts 69°
2026-05-05 05:00 51.48690 -33.10961 34330 ft 518 kts 69°
2026-05-05 05:01 51.50685 -32.99853 34365 ft 518 kts 68°
2026-05-05 05:01 51.52673 -32.88714 34351 ft 519 kts 68°
2026-05-05 05:02 51.54652 -32.77571 34341 ft 519 kts 68°
2026-05-05 05:02 51.56621 -32.66402 34345 ft 519 kts 68°
2026-05-05 05:03 51.58568 -32.55290 34340 ft 519 kts 69°
2026-05-05 05:03 51.60521 -32.44078 34350 ft 520 kts 68°
2026-05-05 05:04 51.62461 -32.32865 34353 ft 520 kts 68°
2026-05-05 05:04 51.64392 -32.21633 34348 ft 520 kts 68°
2026-05-05 05:05 51.66310 -32.10404 34349 ft 520 kts 68°
2026-05-05 05:05 51.68221 -31.99147 34348 ft 521 kts 67°
2026-05-05 05:06 51.70109 -31.87950 34357 ft 521 kts 68°
2026-05-05 05:06 51.72000 -31.76668 34352 ft 521 kts 68°
2026-05-05 05:07 51.73880 -31.65370 34355 ft 521 kts 68°
2026-05-05 05:07 51.75752 -31.54056 34369 ft 522 kts 67°
2026-05-05 05:08 51.77615 -31.42713 34365 ft 523 kts 68°
2026-05-05 05:08 51.79467 -31.31357 34360 ft 523 kts 68°
2026-05-05 05:09 51.81309 -31.19990 34363 ft 523 kts 68°
2026-05-05 05:09 51.83140 -31.08616 34364 ft 523 kts 68°
2026-05-05 05:10 51.84949 -30.97302 34367 ft 523 kts 68°
2026-05-05 05:10 51.86758 -30.85909 34366 ft 523 kts 68°
2026-05-05 05:11 51.88558 -30.74494 34364 ft 523 kts 68°
2026-05-05 05:11 51.90346 -30.63080 34397 ft 523 kts 68°
2026-05-05 05:12 51.92125 -30.51640 34374 ft 523 kts 68°
2026-05-05 05:12 51.93889 -30.40209 34369 ft 522 kts 68°
2026-05-05 05:13 51.95640 -30.28791 34374 ft 522 kts 68°
2026-05-05 05:13 51.97380 -30.17368 34423 ft 521 kts 69°
2026-05-05 05:14 51.99107 -30.05950 34378 ft 521 kts 69°
2026-05-05 05:14 52.01174 -29.94866 34371 ft 510 kts 60°
2026-05-05 05:15 52.03889 -29.84230 34381 ft 508 kts 59°
2026-05-05 05:15 52.06155 -29.75409 34376 ft 509 kts 59°
2026-05-05 05:16 52.08846 -29.64759 34380 ft 510 kts 61°
2026-05-05 05:16 52.11507 -29.54060 34381 ft 510 kts 61°
2026-05-05 05:17 52.14149 -29.43354 34376 ft 509 kts 61°
2026-05-05 05:17 52.16782 -29.32639 34377 ft 509 kts 61°
2026-05-05 05:18 52.19407 -29.21917 34382 ft 509 kts 63°
2026-05-05 05:18 52.22000 -29.11268 34377 ft 508 kts 63°
2026-05-05 05:19 52.24598 -29.00549 34374 ft 507 kts 63°
2026-05-05 05:19 52.27178 -28.89854 34376 ft 506 kts 63°
2026-05-05 05:20 52.29747 -28.79156 34378 ft 506 kts 64°
2026-05-05 05:20 52.32302 -28.68460 34376 ft 504 kts 64°
2026-05-05 05:21 52.34842 -28.57768 34377 ft 503 kts 64°
2026-05-05 05:21 52.37371 -28.47079 34378 ft 503 kts 64°
2026-05-05 05:22 52.39867 -28.36472 34389 ft 503 kts 65°
2026-05-05 05:22 52.42372 -28.25778 34377 ft 502 kts 65°
2026-05-05 05:23 52.44859 -28.15102 34372 ft 501 kts 65°
2026-05-05 05:23 52.47335 -28.04422 34370 ft 501 kts 65°
2026-05-05 05:24 52.49800 -27.93739 34388 ft 500 kts 65°
2026-05-05 05:24 52.52254 -27.83047 34367 ft 500 kts 65°
2026-05-05 05:25 52.54699 -27.72341 34366 ft 500 kts 65°
2026-05-05 05:25 52.57132 -27.61632 34367 ft 500 kts 66°
2026-05-05 05:26 52.59540 -27.50979 34392 ft 499 kts 65°
2026-05-05 05:26 52.61951 -27.40262 34364 ft 500 kts 66°
2026-05-05 05:27 52.64353 -27.29526 34357 ft 499 kts 66°
2026-05-05 05:27 52.67935 -27.13415 34358 ft 499 kts 66°
2026-05-05 05:28 52.70310 -27.02666 34373 ft 499 kts 66°
2026-05-05 05:28 52.72679 -26.91883 34359 ft 500 kts 66°
2026-05-05 05:29 52.75037 -26.81098 34356 ft 500 kts 66°
2026-05-05 05:29 52.77387 -26.70293 34357 ft 500 kts 66°
2026-05-05 05:30 52.79725 -26.59485 34352 ft 500 kts 66°
2026-05-05 05:30 52.82038 -26.48735 34346 ft 500 kts 66°
2026-05-05 05:31 52.84358 -26.37897 34350 ft 500 kts 66°
2026-05-05 05:31 52.86669 -26.27042 34345 ft 500 kts 66°
2026-05-05 05:32 52.88971 -26.16175 34352 ft 500 kts 66°
2026-05-05 05:32 52.91266 -26.05282 34359 ft 501 kts 67°
2026-05-05 05:33 52.93553 -25.94364 34342 ft 502 kts 67°
2026-05-05 05:33 52.95835 -25.83413 34339 ft 502 kts 67°
2026-05-05 05:34 52.98109 -25.72438 34342 ft 503 kts 67°
2026-05-05 05:34 53.00363 -25.61502 34358 ft 504 kts 68°
2026-05-05 05:35 53.02626 -25.50460 34347 ft 505 kts 68°
2026-05-05 05:35 53.04881 -25.39395 34346 ft 506 kts 68°
2026-05-05 05:36 53.07129 -25.28304 34345 ft 506 kts 68°
2026-05-05 05:36 53.09368 -25.17195 34352 ft 507 kts 69°
2026-05-05 05:37 53.11587 -25.06124 34344 ft 508 kts 69°
2026-05-05 05:37 53.13811 -24.94956 34341 ft 508 kts 69°
2026-05-05 05:38 53.16027 -24.83771 34337 ft 509 kts 69°
2026-05-05 05:38 53.18236 -24.72559 34351 ft 509 kts 70°
2026-05-05 05:39 53.20435 -24.61329 34320 ft 509 kts 70°
2026-05-05 05:39 53.22624 -24.50084 34337 ft 509 kts 70°
2026-05-05 05:40 53.24786 -24.38909 34336 ft 509 kts 70°
2026-05-05 05:40 53.26955 -24.27637 34331 ft 510 kts 70°
2026-05-05 05:41 53.29115 -24.16346 34337 ft 510 kts 71°
2026-05-05 05:41 53.31264 -24.05043 34328 ft 510 kts 71°
2026-05-05 05:42 53.33402 -23.93734 34332 ft 510 kts 71°
2026-05-05 05:42 53.35530 -23.82409 34326 ft 510 kts 71°
2026-05-05 05:43 53.37644 -23.71084 34334 ft 509 kts 71°
2026-05-05 05:43 53.39748 -23.59752 34320 ft 509 kts 71°
2026-05-05 05:44 53.41843 -23.48392 34318 ft 509 kts 72°
2026-05-05 05:44 53.43911 -23.37113 34327 ft 509 kts 72°
2026-05-05 05:45 53.45981 -23.25756 34322 ft 509 kts 72°
2026-05-05 05:45 53.48042 -23.14377 34318 ft 510 kts 72°
2026-05-05 05:46 53.50094 -23.02972 34313 ft 510 kts 72°
2026-05-05 05:46 53.52135 -22.91561 34317 ft 510 kts 72°
2026-05-05 05:47 53.54166 -22.80133 34316 ft 510 kts 73°
2026-05-05 05:47 53.56189 -22.68682 34316 ft 511 kts 73°
2026-05-05 05:48 53.58191 -22.57268 34313 ft 511 kts 73°
2026-05-05 05:48 53.60193 -22.45789 34310 ft 511 kts 73°
2026-05-05 05:49 53.62185 -22.34287 34306 ft 511 kts 73°
2026-05-05 05:49 53.64155 -22.22844 34308 ft 511 kts 73°
2026-05-05 05:50 53.66124 -22.11331 34314 ft 511 kts 73°
2026-05-05 05:50 53.68079 -21.99821 34315 ft 511 kts 73°
2026-05-05 05:51 53.70025 -21.88291 34310 ft 511 kts 73°
2026-05-05 05:51 53.71962 -21.76738 34304 ft 511 kts 73°
2026-05-05 05:52 53.73884 -21.65199 34305 ft 511 kts 74°
2026-05-05 05:52 53.75785 -21.53708 34305 ft 511 kts 74°
2026-05-05 05:53 53.77685 -21.42140 34306 ft 511 kts 74°
2026-05-05 05:53 53.79574 -21.30568 34306 ft 511 kts 74°
2026-05-05 05:54 53.81456 -21.18956 34299 ft 511 kts 74°
2026-05-05 05:54 53.83320 -21.07380 34288 ft 511 kts 74°
2026-05-05 05:55 53.85176 -20.95772 34286 ft 510 kts 75°
2026-05-05 05:55 53.87009 -20.84227 34288 ft 510 kts 75°
2026-05-05 05:56 53.88842 -20.72601 34295 ft 510 kts 75°
2026-05-05 05:56 53.90664 -20.60963 34283 ft 510 kts 75°
2026-05-05 05:57 53.92473 -20.49332 34284 ft 510 kts 75°
2026-05-05 05:57 53.94270 -20.37692 34293 ft 510 kts 75°
2026-05-05 05:58 53.96054 -20.26050 34285 ft 509 kts 75°
2026-05-05 05:58 53.97814 -20.14491 34280 ft 509 kts 75°
2026-05-05 05:59 53.99532 -20.02836 34271 ft 508 kts 78°
2026-05-05 05:59 54.00299 -19.90904 34280 ft 507 kts 89°
2026-05-05 06:00 54.00469 -19.78907 34284 ft 507 kts 89°
2026-05-05 06:00 54.00641 -19.66896 34258 ft 508 kts 89°
2026-05-05 06:01 54.00836 -19.54966 34270 ft 508 kts 88°
2026-05-05 06:01 54.01036 -19.42963 34276 ft 508 kts 88°
2026-05-05 06:02 54.01227 -19.30945 34259 ft 508 kts 89°
2026-05-05 06:02 54.01402 -19.18938 34266 ft 508 kts 88°
2026-05-05 06:03 54.01565 -19.06949 34263 ft 507 kts 89°
2026-05-05 06:03 54.01715 -18.94962 34252 ft 507 kts 89°
2026-05-05 06:04 54.01853 -18.82981 34263 ft 506 kts 89°
2026-05-05 06:04 54.01959 -18.73030 34271 ft 506 kts 89°
2026-05-05 06:05 54.02075 -18.61075 34243 ft 506 kts 89°
2026-05-05 06:05 54.02180 -18.49086 34240 ft 506 kts 89°
2026-05-05 06:06 54.02272 -18.37135 34252 ft 505 kts 89°
2026-05-05 06:06 54.02353 -18.25189 34250 ft 505 kts 89°
2026-05-05 06:07 54.02421 -18.13248 34252 ft 505 kts 89°
2026-05-05 06:07 54.02478 -18.01299 34250 ft 505 kts 89°
2026-05-05 06:08 54.02524 -17.89363 34246 ft 505 kts 89°
2026-05-05 06:08 54.02557 -17.77430 34243 ft 505 kts 89°
2026-05-05 06:09 54.02578 -17.65489 34246 ft 505 kts 89°
2026-05-05 06:09 54.02587 -17.53624 34245 ft 505 kts 89°
2026-05-05 06:10 54.02585 -17.41676 34235 ft 505 kts 89°
2026-05-05 06:10 54.02572 -17.29729 34233 ft 505 kts 89°
2026-05-05 06:11 54.02546 -17.17786 34231 ft 505 kts 89°
2026-05-05 06:11 54.02508 -17.05832 34226 ft 504 kts 89°
2026-05-05 06:12 54.02458 -16.93904 34237 ft 504 kts 89°
2026-05-05 06:12 54.02397 -16.81951 34230 ft 504 kts 89°
2026-05-05 06:13 54.02324 -16.70103 34219 ft 504 kts 90°
2026-05-05 06:13 54.02240 -16.58156 34231 ft 504 kts 90°
2026-05-05 06:14 54.02143 -16.46237 34233 ft 504 kts 90°
2026-05-05 06:14 54.02034 -16.34304 34227 ft 504 kts 90°
2026-05-05 06:15 54.01914 -16.22378 34230 ft 504 kts 90°
2026-05-05 06:15 54.01782 -16.10425 34227 ft 504 kts 90°
2026-05-05 06:16 54.01638 -15.98499 34220 ft 504 kts 90°
2026-05-05 06:16 54.01483 -15.86655 34237 ft 504 kts 90°
2026-05-05 06:17 54.01316 -15.74722 34211 ft 505 kts 90°
2026-05-05 06:17 54.01137 -15.62784 34217 ft 504 kts 90°
2026-05-05 06:18 54.00946 -15.50865 34212 ft 505 kts 90°
2026-05-05 06:18 54.00743 -15.38948 34219 ft 504 kts 90°
2026-05-05 06:19 54.00528 -15.27023 34206 ft 503 kts 90°
2026-05-05 06:19 54.00305 -15.15214 34212 ft 502 kts 90°
2026-05-05 06:20 54.00070 -15.03370 34207 ft 502 kts 90°
2026-05-05 06:20 53.99928 -14.91499 34207 ft 501 kts 88°
2026-05-05 06:21 54.00011 -14.79690 34209 ft 500 kts 88°
2026-05-05 06:21 54.00084 -14.67863 34203 ft 500 kts 88°
2026-05-05 06:22 54.00106 -14.56043 34201 ft 500 kts 89°
2026-05-05 06:22 54.00103 -14.44221 34199 ft 500 kts 89°
2026-05-05 06:23 54.00089 -14.32470 34209 ft 500 kts 89°
2026-05-05 06:23 54.00067 -14.20643 34191 ft 499 kts 89°
2026-05-05 06:24 54.00034 -14.08837 34193 ft 499 kts 89°
2026-05-05 06:24 53.99769 -13.97065 34184 ft 499 kts 97°
2026-05-05 06:25 53.98570 -13.85392 34505 ft 502 kts 100°
2026-05-05 06:25 53.97930 -13.79570 34795 ft 501 kts 100°
2026-05-05 06:25 53.97296 -13.73767 35149 ft 498 kts 100°
2026-05-05 06:26 53.96051 -13.62211 35188 ft 501 kts 100°
2026-05-05 06:26 53.94813 -13.50609 35178 ft 497 kts 100°
2026-05-05 06:27 53.92959 -13.33351 35177 ft 495 kts 100°
2026-05-05 06:28 53.91710 -13.21872 35183 ft 495 kts 100°
2026-05-05 06:28 53.90448 -13.10391 35174 ft 496 kts 100°
2026-05-05 06:29 53.89171 -12.98890 35175 ft 497 kts 100°
2026-05-05 06:29 53.87890 -12.87448 35170 ft 498 kts 100°
2026-05-05 06:30 53.86586 -12.75912 35167 ft 499 kts 100°
2026-05-05 06:30 53.85267 -12.64353 35176 ft 499 kts 100°
2026-05-05 06:31 53.83939 -12.52813 35158 ft 500 kts 100°
2026-05-05 06:31 53.82598 -12.41269 35159 ft 499 kts 100°
2026-05-05 06:32 53.81246 -12.29725 35158 ft 499 kts 100°
2026-05-05 06:32 53.79883 -12.18199 35159 ft 499 kts 100°
2026-05-05 06:33 53.78511 -12.06688 35165 ft 499 kts 101°
2026-05-05 06:33 53.77136 -11.95260 35148 ft 499 kts 101°
2026-05-05 06:34 53.75738 -11.83737 35150 ft 498 kts 101°
2026-05-05 06:34 53.74335 -11.72270 35144 ft 498 kts 101°
2026-05-05 06:35 53.72930 -11.60880 35139 ft 498 kts 101°
2026-05-05 06:35 53.71506 -11.49430 35153 ft 498 kts 101°
2026-05-05 06:36 53.70068 -11.37969 35136 ft 498 kts 101°
2026-05-05 06:36 53.68624 -11.26556 35132 ft 497 kts 101°
2026-05-05 06:37 53.67171 -11.15164 35135 ft 496 kts 102°
2026-05-05 06:37 53.65708 -11.03782 35131 ft 496 kts 102°
2026-05-05 06:38 53.64245 -10.92494 35130 ft 496 kts 102°
2026-05-05 06:38 53.62763 -10.81145 35129 ft 496 kts 102°
2026-05-05 06:39 53.61269 -10.69801 35133 ft 496 kts 102°
2026-05-05 06:39 53.59767 -10.58481 35128 ft 496 kts 102°
2026-05-05 06:40 53.58252 -10.47154 35130 ft 496 kts 102°
2026-05-05 06:40 53.56724 -10.35814 35136 ft 496 kts 102°
2026-05-05 06:41 53.55184 -10.24481 35124 ft 496 kts 102°
2026-05-05 06:41 53.53636 -10.13168 35126 ft 496 kts 102°
2026-05-05 06:42 53.52087 -10.01936 35124 ft 496 kts 103°
2026-05-05 06:42 53.50517 -9.90637 35126 ft 496 kts 103°
2026-05-05 06:43 53.48934 -9.79327 35123 ft 497 kts 103°
2026-05-05 06:43 53.47342 -9.68045 35116 ft 497 kts 103°
2026-05-05 06:44 53.45738 -9.56757 35119 ft 497 kts 103°
2026-05-05 06:44 53.44123 -9.45474 35119 ft 497 kts 103°
2026-05-05 06:45 53.42499 -9.34211 35115 ft 497 kts 103°
2026-05-05 06:45 53.40864 -9.22949 35117 ft 497 kts 104°
2026-05-05 06:46 53.39217 -9.11696 35115 ft 497 kts 104°
2026-05-05 06:46 53.37562 -9.00468 35117 ft 496 kts 104°
2026-05-05 06:47 53.35896 -8.89241 35117 ft 496 kts 104°
2026-05-05 06:47 53.34222 -8.78042 35115 ft 496 kts 104°
2026-05-05 06:48 53.32548 -8.66920 35114 ft 496 kts 104°
2026-05-05 06:48 53.30853 -8.55738 35110 ft 496 kts 105°
2026-05-05 06:49 53.29149 -8.44573 35112 ft 496 kts 105°
2026-05-05 06:49 53.27434 -8.33414 35104 ft 495 kts 105°
2026-05-05 06:50 53.25711 -8.22274 35109 ft 495 kts 105°
2026-05-05 06:50 53.23976 -8.11142 35104 ft 495 kts 105°
2026-05-05 06:51 53.22234 -8.00031 35102 ft 495 kts 105°
2026-05-05 06:51 53.20481 -7.88931 35098 ft 495 kts 105°
2026-05-05 06:52 53.19016 -7.79710 35100 ft 494 kts 105°
2026-05-05 06:52 53.16958 -7.66842 35099 ft 494 kts 105°
2026-05-05 06:53 53.15176 -7.55778 35093 ft 494 kts 105°
2026-05-05 06:53 53.13681 -7.46552 35091 ft 493 kts 105°
2026-05-05 06:54 53.11882 -7.35518 35092 ft 493 kts 105°
2026-05-05 06:54 53.10089 -7.24588 35092 ft 493 kts 105°
2026-05-05 06:55 53.08276 -7.13611 35085 ft 493 kts 105°
2026-05-05 06:55 53.06451 -7.02629 35086 ft 492 kts 105°
2026-05-05 06:56 53.04619 -6.91672 35079 ft 491 kts 105°
2026-05-05 06:56 53.02785 -6.80768 35082 ft 489 kts 105°
2026-05-05 06:57 53.00943 -6.69882 35076 ft 488 kts 105°
2026-05-05 06:57 52.98901 -6.59139 35083 ft 487 kts 109°
2026-05-05 06:58 52.96656 -6.48615 35079 ft 487 kts 109°
2026-05-05 06:58 52.94384 -6.38028 35078 ft 487 kts 109°
2026-05-05 06:59 52.92107 -6.27360 35067 ft 488 kts 109°
2026-05-05 06:59 52.89851 -6.16806 35070 ft 489 kts 109°
2026-05-05 07:00 52.87571 -6.06191 35074 ft 489 kts 109°
2026-05-05 07:00 52.85282 -5.95596 35071 ft 487 kts 109°
2026-05-05 07:01 52.82995 -5.85060 35063 ft 485 kts 109°
2026-05-05 07:01 52.80733 -5.74697 35057 ft 482 kts 109°
2026-05-05 07:02 52.78453 -5.64298 35062 ft 481 kts 109°
2026-05-05 07:02 52.76168 -5.53923 35063 ft 480 kts 109°
2026-05-05 07:03 52.73481 -5.43824 35071 ft 481 kts 117°
2026-05-05 07:03 52.70373 -5.34026 35065 ft 483 kts 117°
2026-05-05 07:04 52.67245 -5.24188 35072 ft 485 kts 117°
2026-05-05 07:04 52.64131 -5.14335 35071 ft 485 kts 116°
2026-05-05 07:05 52.61023 -5.04488 35065 ft 484 kts 116°
2026-05-05 07:05 52.57921 -4.94694 35066 ft 482 kts 116°
2026-05-05 07:06 52.54822 -4.84952 35059 ft 479 kts 116°
2026-05-05 07:06 52.51733 -4.75285 35055 ft 477 kts 116°
2026-05-05 07:07 52.48667 -4.65726 35060 ft 475 kts 116°
2026-05-05 07:07 52.45582 -4.56146 35055 ft 475 kts 117°
2026-05-05 07:08 52.42487 -4.46572 35074 ft 475 kts 116°
2026-05-05 07:08 52.39383 -4.37007 35057 ft 475 kts 116°
2026-05-05 07:09 52.36271 -4.27455 35050 ft 475 kts 117°
2026-05-05 07:09 52.33151 -4.17919 35051 ft 475 kts 117°
2026-05-05 07:10 52.30033 -4.08420 35050 ft 474 kts 117°
2026-05-05 07:10 52.26905 -3.98932 35049 ft 474 kts 117°
2026-05-05 07:11 52.23793 -3.89526 35052 ft 474 kts 117°
2026-05-05 07:11 52.20649 -3.80060 35052 ft 473 kts 117°
2026-05-05 07:12 52.17507 -3.70639 35047 ft 472 kts 117°
2026-05-05 07:12 52.14363 -3.61244 35050 ft 472 kts 117°
2026-05-05 07:13 52.11215 -3.51870 35041 ft 472 kts 117°
2026-05-05 07:13 52.08060 -3.42516 35055 ft 472 kts 117°
2026-05-05 07:14 52.04916 -3.33227 35046 ft 472 kts 117°
2026-05-05 07:14 52.01740 -3.23878 35042 ft 473 kts 118°
2026-05-05 07:15 51.98555 -3.14537 35017 ft 473 kts 118°
2026-05-05 07:15 51.95356 -3.05191 35025 ft 474 kts 118°
2026-05-05 07:16 51.92140 -2.95830 35012 ft 475 kts 118°
2026-05-05 07:16 51.88914 -2.86474 35010 ft 475 kts 118°
2026-05-05 07:17 51.85688 -2.77157 35023 ft 475 kts 118°
2026-05-05 07:17 51.82455 -2.67852 35033 ft 474 kts 118°
2026-05-05 07:18 51.79221 -2.58577 35020 ft 474 kts 119°
2026-05-05 07:18 51.76002 -2.49375 35038 ft 473 kts 120°
2026-05-05 07:19 51.72759 -2.40147 35022 ft 473 kts 120°
2026-05-05 07:19 51.69511 -2.30937 35024 ft 472 kts 120°
2026-05-05 07:20 51.66257 -2.21738 35022 ft 472 kts 120°
2026-05-05 07:20 51.62993 -2.12548 35017 ft 472 kts 120°
2026-05-05 07:21 51.59722 -2.03370 35013 ft 473 kts 121°
2026-05-05 07:21 51.56450 -1.94222 35024 ft 473 kts 121°
2026-05-05 07:22 51.53215 -1.85207 35019 ft 473 kts 121°
2026-05-05 07:22 51.49919 -1.76053 35020 ft 474 kts 121°
2026-05-05 07:23 51.47030 -1.66541 35014 ft 475 kts 111°
2026-05-05 07:23 51.45274 -1.56324 35020 ft 477 kts 102°
2026-05-05 07:24 51.43934 -1.45905 35001 ft 477 kts 103°
2026-05-05 07:24 51.42503 -1.35585 34993 ft 478 kts 104°
2026-05-05 07:25 51.41044 -1.25188 34998 ft 478 kts 104°
2026-05-05 07:25 51.39629 -1.14749 34990 ft 480 kts 101°
2026-05-05 07:26 51.38976 -1.04101 34988 ft 481 kts 95°
2026-05-05 07:26 51.38483 -0.93445 34974 ft 481 kts 95°
2026-05-05 07:27 51.37951 -0.82749 34995 ft 482 kts 96°
2026-05-05 07:27 51.37390 -0.72112 34990 ft 482 kts 96°
2026-05-05 07:28 51.36811 -0.61413 34993 ft 483 kts 96°
2026-05-05 07:28 51.36223 -0.50707 34994 ft 483 kts 96°
2026-05-05 07:29 51.35626 -0.40017 34993 ft 483 kts 96°
2026-05-05 07:29 51.35019 -0.29304 34989 ft 483 kts 96°
2026-05-05 07:30 51.34403 -0.18605 34987 ft 483 kts 96°
2026-05-05 07:30 51.33463 -0.02575 34975 ft 483 kts 96°
2026-05-05 07:31 51.32613 0.08098 35022 ft 484 kts 102°
2026-05-05 07:31 51.31245 0.18657 35058 ft 487 kts 103°
2026-05-05 07:32 51.29903 0.29232 35083 ft 490 kts 103°
2026-05-05 07:32 51.28590 0.39942 35097 ft 491 kts 102°
2026-05-05 07:33 51.27307 0.50591 35085 ft 492 kts 102°
2026-05-05 07:33 51.25984 0.61300 35080 ft 491 kts 103°
2026-05-05 07:34 51.24562 0.71984 35058 ft 492 kts 103°
2026-05-05 07:34 51.23199 0.82686 35020 ft 492 kts 103°
2026-05-05 07:35 51.21862 0.93375 34994 ft 491 kts 103°
2026-05-05 07:35 51.20498 1.04059 34969 ft 491 kts 103°
2026-05-05 07:36 51.19099 1.14733 34972 ft 492 kts 104°
2026-05-05 07:36 51.17700 1.25343 34970 ft 492 kts 104°
2026-05-05 07:37 51.16327 1.36027 34969 ft 493 kts 101°
2026-05-05 07:37 51.15694 1.46923 34963 ft 494 kts 96°
2026-05-05 07:38 51.15223 1.57860 34975 ft 496 kts 96°
2026-05-05 07:38 51.14701 1.68852 34972 ft 497 kts 97°
2026-05-05 07:39 51.14148 1.79763 34962 ft 498 kts 97°
2026-05-05 07:39 51.13582 1.90765 34950 ft 498 kts 97°
2026-05-05 07:40 51.13008 2.01762 34963 ft 499 kts 97°
2026-05-05 07:40 51.12422 2.12771 34966 ft 500 kts 97°
2026-05-05 07:41 51.11826 2.23801 34961 ft 500 kts 97°
2026-05-05 07:41 51.11324 2.32971 34950 ft 500 kts 97°
2026-05-05 07:42 51.10710 2.44000 34948 ft 499 kts 98°
2026-05-05 07:42 51.10089 2.54993 34947 ft 499 kts 98°
2026-05-05 07:43 51.08843 2.65756 34948 ft 492 kts 110°
2026-05-05 07:43 51.06375 2.75829 34945 ft 487 kts 120°
2026-05-05 07:44 51.03383 2.85489 34933 ft 487 kts 120°
2026-05-05 07:44 51.00391 2.95129 34942 ft 486 kts 120°
2026-05-05 07:45 50.97416 3.04781 34940 ft 487 kts 120°
2026-05-05 07:45 50.94466 3.14370 34942 ft 487 kts 120°
2026-05-05 07:46 50.91490 3.24016 34933 ft 487 kts 120°
2026-05-05 07:46 50.88507 3.33639 34927 ft 486 kts 121°
2026-05-05 07:47 50.85523 3.43227 34931 ft 485 kts 121°
2026-05-05 07:47 50.82537 3.52782 34940 ft 484 kts 121°
2026-05-05 07:48 50.79553 3.62294 34919 ft 482 kts 121°
2026-05-05 07:48 50.76571 3.71762 34934 ft 480 kts 121°
2026-05-05 07:49 50.73589 3.81196 34918 ft 479 kts 121°
2026-05-05 07:49 50.70607 3.90590 34914 ft 479 kts 121°
2026-05-05 07:50 50.67608 4.00001 34912 ft 480 kts 122°
2026-05-05 07:50 50.64622 4.09335 34918 ft 480 kts 122°
2026-05-05 07:51 50.61599 4.18754 34908 ft 481 kts 122°
2026-05-05 07:51 50.58568 4.28160 34907 ft 482 kts 122°
2026-05-05 07:52 50.55531 4.37552 34916 ft 482 kts 122°
2026-05-05 07:52 50.52487 4.46928 34909 ft 481 kts 122°
2026-05-05 07:53 50.49439 4.56281 34909 ft 480 kts 122°
2026-05-05 07:53 50.46388 4.65614 34894 ft 479 kts 123°
2026-05-05 07:54 50.43339 4.74900 34893 ft 478 kts 123°
2026-05-05 07:54 50.40281 4.84176 34893 ft 478 kts 123°
2026-05-05 07:55 50.37241 4.93367 34893 ft 478 kts 123°
2026-05-05 07:55 50.34170 5.02618 34888 ft 478 kts 123°
2026-05-05 07:56 50.31102 5.11824 34886 ft 478 kts 123°
2026-05-05 07:56 50.28022 5.21038 34886 ft 477 kts 123°
2026-05-05 07:57 50.24939 5.30223 34881 ft 476 kts 123°
2026-05-05 07:57 50.21863 5.39357 34884 ft 475 kts 123°
2026-05-05 07:58 50.18783 5.48468 34883 ft 474 kts 124°
2026-05-05 07:58 50.15701 5.57550 34870 ft 475 kts 123°
2026-05-05 07:59 50.12617 5.66606 34881 ft 477 kts 123°
2026-05-05 07:59 50.09490 5.75764 34884 ft 480 kts 123°
2026-05-05 08:00 50.06366 5.84984 34888 ft 483 kts 122°
2026-05-05 08:00 50.03361 5.94337 34866 ft 483 kts 122°
2026-05-05 08:01 50.00376 6.03710 34872 ft 484 kts 122°
2026-05-05 08:01 49.97364 6.13070 34875 ft 484 kts 122°
2026-05-05 08:02 49.94341 6.22384 34889 ft 484 kts 122°
2026-05-05 08:02 49.91317 6.31652 34883 ft 484 kts 122°
2026-05-05 08:03 49.88269 6.40963 34868 ft 483 kts 122°
2026-05-05 08:03 49.85219 6.50244 34873 ft 484 kts 122°
2026-05-05 08:04 49.82156 6.59534 34857 ft 484 kts 122°
2026-05-05 08:04 49.79087 6.68806 34862 ft 484 kts 122°
2026-05-05 08:05 49.76009 6.78072 34868 ft 483 kts 123°
2026-05-05 08:05 49.72946 6.87262 34879 ft 483 kts 123°
2026-05-05 08:06 49.69863 6.96477 34879 ft 483 kts 123°
2026-05-05 08:06 49.66771 7.05683 34882 ft 483 kts 123°
2026-05-05 08:07 49.63675 7.14870 34884 ft 482 kts 123°
2026-05-05 08:07 49.60576 7.24031 34868 ft 481 kts 123°
2026-05-05 08:08 49.57473 7.33168 34887 ft 481 kts 123°
2026-05-05 08:08 49.54362 7.42301 34883 ft 481 kts 123°
2026-05-05 08:09 49.51246 7.51418 34876 ft 481 kts 123°
2026-05-05 08:09 49.48120 7.60526 34880 ft 481 kts 123°
2026-05-05 08:10 49.44990 7.69617 34872 ft 480 kts 123°
2026-05-05 08:10 49.41875 7.78630 34877 ft 480 kts 123°
2026-05-05 08:11 49.38734 7.87687 34878 ft 480 kts 123°
2026-05-05 08:11 49.35586 7.96730 34877 ft 481 kts 123°
2026-05-05 08:12 49.32433 8.05762 34858 ft 481 kts 123°
2026-05-05 08:12 49.29266 8.14795 34870 ft 481 kts 123°
2026-05-05 08:13 49.26096 8.23811 34877 ft 481 kts 123°
2026-05-05 08:13 49.22916 8.32821 34882 ft 482 kts 123°
2026-05-05 08:14 49.19725 8.41833 34880 ft 482 kts 123°
2026-05-05 08:14 49.16562 8.50735 34865 ft 481 kts 123°
2026-05-05 08:15 49.13348 8.59755 34868 ft 481 kts 123°
2026-05-05 08:15 49.10082 8.68639 34868 ft 477 kts 128°
2026-05-05 08:16 49.06440 8.77087 34876 ft 476 kts 129°
2026-05-05 08:16 49.02764 8.85500 34866 ft 476 kts 128°
2026-05-05 08:17 48.99122 8.93870 34872 ft 477 kts 128°
2026-05-05 08:17 48.95457 9.02305 34876 ft 478 kts 128°
2026-05-05 08:18 48.91780 9.10747 34880 ft 479 kts 128°
2026-05-05 08:18 48.88096 9.19178 34873 ft 479 kts 128°
2026-05-05 08:19 48.84406 9.27595 34868 ft 479 kts 128°
2026-05-05 08:19 48.80707 9.36003 34883 ft 478 kts 128°
2026-05-05 08:20 48.77006 9.44391 34886 ft 479 kts 128°
2026-05-05 08:20 48.73319 9.52723 34886 ft 479 kts 128°
2026-05-05 08:21 48.69603 9.61098 34848 ft 479 kts 129°
2026-05-05 08:21 48.65949 9.69557 34877 ft 481 kts 126°
2026-05-05 08:22 48.62535 9.78249 34890 ft 481 kts 125°
2026-05-05 08:22 48.59141 9.86964 34891 ft 481 kts 125°
2026-05-05 08:23 48.55728 9.95651 34889 ft 481 kts 126°
2026-05-05 08:23 48.52300 10.04315 34880 ft 481 kts 126°
2026-05-05 08:24 48.48881 10.12914 34895 ft 482 kts 126°
2026-05-05 08:24 48.45422 10.21586 34899 ft 482 kts 126°
2026-05-05 08:25 48.41956 10.30252 34894 ft 483 kts 126°
2026-05-05 08:25 48.38485 10.38905 34871 ft 484 kts 125°
2026-05-05 08:26 48.34992 10.47580 34889 ft 485 kts 125°
2026-05-05 08:26 48.31493 10.56246 34882 ft 486 kts 126°
2026-05-05 08:27 48.27968 10.64947 34887 ft 486 kts 126°
2026-05-05 08:27 48.24443 10.73621 34880 ft 487 kts 126°
2026-05-05 08:28 48.20930 10.82236 34880 ft 487 kts 125°
2026-05-05 08:28 48.17399 10.90869 34885 ft 487 kts 125°
2026-05-05 08:29 48.13848 10.99522 34882 ft 487 kts 125°
2026-05-05 08:30 48.09090 11.11074 34881 ft 488 kts 126°
2026-05-05 08:30 48.05537 11.19664 34877 ft 488 kts 125°
2026-05-05 08:31 48.01954 11.28301 34886 ft 489 kts 125°
2026-05-05 08:31 47.98359 11.36942 34886 ft 490 kts 125°
2026-05-05 08:32 47.94752 11.45583 34879 ft 490 kts 126°
2026-05-05 08:32 47.91138 11.54214 34870 ft 490 kts 125°
2026-05-05 08:33 47.87518 11.62831 34859 ft 491 kts 125°
2026-05-05 08:33 47.83892 11.71435 34875 ft 490 kts 125°
2026-05-05 08:34 47.80261 11.80023 34868 ft 490 kts 125°
2026-05-05 08:34 47.76618 11.88613 34858 ft 490 kts 125°
2026-05-05 08:35 47.72980 11.97165 34869 ft 489 kts 125°
2026-05-05 08:35 47.69363 12.05641 34867 ft 488 kts 125°
2026-05-05 08:36 47.65720 12.14153 34868 ft 488 kts 125°
2026-05-05 08:36 47.62068 12.22657 34875 ft 488 kts 125°
2026-05-05 08:37 47.58414 12.31146 34874 ft 489 kts 125°
2026-05-05 08:37 47.54638 12.39490 34879 ft 484 kts 131°
2026-05-05 08:38 47.50356 12.47162 34883 ft 484 kts 133°
2026-05-05 08:38 47.46039 12.54802 34884 ft 485 kts 133°
2026-05-05 08:39 47.41751 12.62441 34883 ft 485 kts 133°
2026-05-05 08:39 47.37446 12.70134 34890 ft 486 kts 132°
2026-05-05 08:40 47.33138 12.77823 34899 ft 486 kts 133°
2026-05-05 08:40 47.28819 12.85502 34898 ft 486 kts 133°
2026-05-05 08:41 47.24501 12.93155 34893 ft 486 kts 133°
2026-05-05 08:41 47.20183 13.00792 34924 ft 485 kts 133°
2026-05-05 08:42 47.15857 13.08415 34920 ft 485 kts 133°
2026-05-05 08:42 47.11539 13.16005 34949 ft 484 kts 133°
2026-05-05 08:43 47.07214 13.23588 34946 ft 485 kts 133°
2026-05-05 08:43 47.02879 13.31168 34936 ft 486 kts 133°
2026-05-05 08:44 46.98552 13.38710 34973 ft 487 kts 133°
2026-05-05 08:44 46.94190 13.46292 34959 ft 486 kts 133°
2026-05-05 08:45 46.89829 13.53855 34967 ft 485 kts 133°
2026-05-05 08:45 46.85463 13.61401 34962 ft 487 kts 133°
2026-05-05 08:46 46.81075 13.68967 34959 ft 487 kts 133°
2026-05-05 08:46 46.76685 13.76513 34974 ft 488 kts 133°
2026-05-05 08:47 46.72279 13.84070 34959 ft 489 kts 133°
2026-05-05 08:47 46.67872 13.91607 34961 ft 489 kts 133°
2026-05-05 08:48 46.63454 13.99138 34967 ft 489 kts 133°
2026-05-05 08:48 46.59063 14.06605 34979 ft 489 kts 133°
2026-05-05 08:49 46.54636 14.14113 34978 ft 490 kts 134°
2026-05-05 08:49 46.50194 14.21626 34983 ft 490 kts 134°
2026-05-05 08:50 46.45744 14.29131 34982 ft 491 kts 133°
2026-05-05 08:50 46.41280 14.36638 34994 ft 491 kts 133°
2026-05-05 08:51 46.36835 14.44093 35015 ft 492 kts 133°
2026-05-05 08:51 46.32361 14.51577 35018 ft 493 kts 133°
2026-05-05 08:52 46.27861 14.59087 35009 ft 494 kts 134°
2026-05-05 08:52 46.23342 14.66604 35020 ft 495 kts 133°
2026-05-05 08:53 46.18816 14.74112 35013 ft 495 kts 133°
2026-05-05 08:53 46.14290 14.81603 35010 ft 494 kts 133°
2026-05-05 08:54 46.09796 14.89018 35000 ft 493 kts 133°
2026-05-05 08:54 46.05276 14.96458 35005 ft 493 kts 133°
2026-05-05 08:55 46.00757 15.03874 35005 ft 492 kts 133°
2026-05-05 08:55 45.96239 15.11269 35008 ft 492 kts 133°
2026-05-05 08:56 45.91714 15.18655 34988 ft 492 kts 133°
2026-05-05 08:56 45.87220 15.25974 35006 ft 491 kts 134°
2026-05-05 08:57 45.82689 15.33331 34989 ft 492 kts 134°
2026-05-05 08:57 45.78153 15.40676 34990 ft 492 kts 134°
2026-05-05 08:58 45.73605 15.48022 34989 ft 493 kts 134°
2026-05-05 08:58 45.69048 15.55363 34997 ft 493 kts 134°
2026-05-05 08:59 45.64614 15.62486 35006 ft 493 kts 134°
2026-05-05 08:59 45.60052 15.69796 35020 ft 493 kts 134°
2026-05-05 09:00 45.55484 15.77097 35022 ft 493 kts 134°
2026-05-05 09:00 45.50938 15.84343 35022 ft 493 kts 134°
2026-05-05 09:01 45.46355 15.91631 35021 ft 494 kts 134°
2026-05-05 09:01 45.41752 15.98929 35018 ft 495 kts 134°
2026-05-05 09:02 45.37145 16.06216 35019 ft 495 kts 134°
2026-05-05 09:02 45.32534 16.13489 35017 ft 496 kts 134°
2026-05-05 09:03 45.27910 16.20764 35019 ft 496 kts 134°
2026-05-05 09:03 45.23273 16.28041 35017 ft 497 kts 134°
2026-05-05 09:04 45.18633 16.35303 35013 ft 497 kts 134°
2026-05-05 09:04 45.14017 16.42513 35009 ft 497 kts 134°
2026-05-05 09:05 45.09377 16.49800 35208 ft 500 kts 134°
2026-05-05 09:05 45.07065 16.53474 35539 ft 498 kts 134°
2026-05-05 09:05 45.04764 16.57136 35897 ft 497 kts 134°
2026-05-05 09:05 45.02473 16.60777 36228 ft 495 kts 134°
2026-05-05 09:06 45.00186 16.64404 36525 ft 495 kts 134°
2026-05-05 09:06 44.97888 16.68036 36724 ft 497 kts 134°
2026-05-05 09:06 44.95577 16.71681 36899 ft 498 kts 134°
2026-05-05 09:07 44.90938 16.78982 37007 ft 499 kts 134°
2026-05-05 09:07 44.86310 16.86250 37008 ft 496 kts 134°
2026-05-05 09:08 44.81705 16.93459 37020 ft 494 kts 134°
2026-05-05 09:08 44.77100 17.00650 37017 ft 494 kts 134°
2026-05-05 09:09 44.72508 17.07802 37025 ft 495 kts 134°
2026-05-05 09:09 44.67881 17.14993 37025 ft 497 kts 134°
2026-05-05 09:10 44.63235 17.22193 37019 ft 498 kts 134°
2026-05-05 09:10 44.58574 17.29397 37034 ft 499 kts 134°
2026-05-05 09:11 44.53898 17.36608 37037 ft 500 kts 134°
2026-05-05 09:11 44.49202 17.43829 37049 ft 502 kts 134°
2026-05-05 09:12 44.44520 17.51010 37036 ft 502 kts 134°
2026-05-05 09:12 44.39804 17.58228 37034 ft 503 kts 134°
2026-05-05 09:13 44.35082 17.65434 37051 ft 502 kts 134°
2026-05-05 09:13 44.30358 17.72625 37055 ft 502 kts 134°
2026-05-05 09:14 44.25635 17.79797 37049 ft 502 kts 134°
2026-05-05 09:14 44.20903 17.86964 37066 ft 502 kts 134°
2026-05-05 09:15 44.16172 17.94114 37063 ft 502 kts 134°
2026-05-05 09:15 44.11458 18.01215 37064 ft 502 kts 135°
2026-05-05 09:16 44.06702 18.08344 37072 ft 503 kts 135°
2026-05-05 09:16 44.01927 18.15478 37077 ft 504 kts 135°
2026-05-05 09:17 43.97951 18.21411 37084 ft 504 kts 135°
2026-05-05 09:17 43.92383 18.29700 37080 ft 505 kts 135°
2026-05-05 09:18 43.87581 18.36831 37063 ft 506 kts 135°
2026-05-05 09:18 43.83556 18.42793 37086 ft 506 kts 135°
2026-05-05 09:19 43.78763 18.49878 37075 ft 507 kts 135°
2026-05-05 09:19 43.73940 18.56985 37081 ft 506 kts 135°
2026-05-05 09:20 43.69111 18.64086 37095 ft 507 kts 135°
2026-05-05 09:20 43.64282 18.71170 37101 ft 507 kts 135°
2026-05-05 09:21 43.59435 18.78262 37089 ft 508 kts 135°
2026-05-05 09:21 43.54580 18.85348 37113 ft 508 kts 135°
2026-05-05 09:22 43.49715 18.92433 37104 ft 510 kts 135°
2026-05-05 09:22 43.44845 18.99548 37093 ft 511 kts 134°
2026-05-05 09:23 43.40027 19.06729 37098 ft 511 kts 134°
2026-05-05 09:23 43.35245 19.13867 37100 ft 511 kts 134°
2026-05-05 09:24 43.30411 19.21045 37103 ft 512 kts 134°
2026-05-05 09:24 43.25561 19.28214 37116 ft 513 kts 134°
2026-05-05 09:25 43.20690 19.35396 37102 ft 514 kts 134°
2026-05-05 09:25 43.15804 19.42582 37110 ft 515 kts 134°
2026-05-05 09:26 43.10943 19.49714 37109 ft 515 kts 134°
2026-05-05 09:26 43.06042 19.56887 37102 ft 515 kts 134°
2026-05-05 09:27 43.01145 19.64036 37114 ft 515 kts 134°
2026-05-05 09:27 42.96247 19.71169 37122 ft 514 kts 134°
2026-05-05 09:28 42.91339 19.78299 37104 ft 515 kts 134°
2026-05-05 09:28 42.86433 19.85407 37112 ft 515 kts 134°
2026-05-05 09:29 42.81513 19.92520 37127 ft 515 kts 134°
2026-05-05 09:29 42.76623 19.99573 37126 ft 516 kts 134°
2026-05-05 09:30 42.71867 20.06910 37133 ft 517 kts 130°
2026-05-05 09:30 42.67319 20.14479 37135 ft 518 kts 129°
2026-05-05 09:31 42.62765 20.22052 37155 ft 516 kts 129°
2026-05-05 09:31 42.58206 20.29573 37128 ft 514 kts 129°
2026-05-05 09:32 42.53631 20.37065 37140 ft 517 kts 130°
2026-05-05 09:32 42.49018 20.44601 37150 ft 521 kts 130°
2026-05-05 09:33 42.44375 20.52177 37144 ft 523 kts 129°
2026-05-05 09:33 42.39751 20.59705 37141 ft 524 kts 129°
2026-05-05 09:34 42.35083 20.67283 37138 ft 524 kts 129°
2026-05-05 09:34 42.30419 20.74836 37125 ft 523 kts 129°
2026-05-05 09:35 42.25752 20.82373 37159 ft 522 kts 129°
2026-05-05 09:35 42.18761 20.93631 37143 ft 521 kts 129°
2026-05-05 09:36 42.14089 21.01087 37135 ft 521 kts 132°
2026-05-05 09:36 42.08761 21.07659 37138 ft 519 kts 143°
2026-05-05 09:37 42.02739 21.12981 37145 ft 519 kts 149°
2026-05-05 09:37 41.96577 21.18069 37149 ft 521 kts 149°
2026-05-05 09:38 41.90398 21.23213 37146 ft 523 kts 148°
2026-05-05 09:38 41.84222 21.28393 37136 ft 525 kts 148°
2026-05-05 09:39 41.78026 21.33592 37128 ft 525 kts 148°
2026-05-05 09:39 41.71815 21.38788 37139 ft 526 kts 149°
2026-05-05 09:40 41.65605 21.43968 37137 ft 526 kts 149°
2026-05-05 09:40 41.59432 21.49103 37134 ft 526 kts 149°
2026-05-05 09:41 41.53226 21.54256 37133 ft 525 kts 149°
2026-05-05 09:41 41.47000 21.59413 37138 ft 525 kts 149°
2026-05-05 09:42 41.40792 21.64543 37135 ft 525 kts 149°
2026-05-05 09:42 41.34583 21.69663 37128 ft 525 kts 149°
2026-05-05 09:43 41.28363 21.74779 37121 ft 525 kts 149°
2026-05-05 09:43 41.22153 21.79877 37152 ft 525 kts 149°
2026-05-05 09:44 41.15964 21.84946 37141 ft 526 kts 149°
2026-05-05 09:44 41.09731 21.90041 37133 ft 526 kts 149°
2026-05-05 09:45 41.03608 21.95382 37115 ft 526 kts 145°
2026-05-05 09:45 40.97616 22.00958 37123 ft 526 kts 145°
2026-05-05 09:46 40.91621 22.06535 37113 ft 527 kts 145°
2026-05-05 09:46 40.85646 22.12044 37112 ft 527 kts 145°
2026-05-05 09:47 40.79620 22.17570 37111 ft 527 kts 145°
2026-05-05 09:47 40.73585 22.23092 37095 ft 527 kts 145°
2026-05-05 09:48 40.67558 22.28598 37098 ft 526 kts 145°
2026-05-05 09:48 40.61539 22.34085 37091 ft 526 kts 145°
2026-05-05 09:49 40.55518 22.39561 37088 ft 526 kts 145°
2026-05-05 09:49 40.49500 22.45022 37101 ft 526 kts 145°
2026-05-05 09:50 40.43481 22.50473 37095 ft 525 kts 145°
2026-05-05 09:50 40.37463 22.55912 37088 ft 524 kts 145°
2026-05-05 09:51 40.31458 22.61327 37080 ft 523 kts 145°
2026-05-05 09:51 40.25461 22.66728 37090 ft 523 kts 145°
2026-05-05 09:52 40.19462 22.72126 37082 ft 524 kts 146°
2026-05-05 09:52 40.13486 22.77492 37082 ft 524 kts 146°
2026-05-05 09:53 40.07468 22.82883 37077 ft 525 kts 146°
2026-05-05 09:53 40.01434 22.88277 37084 ft 525 kts 146°
2026-05-05 09:54 39.95392 22.93666 37078 ft 526 kts 146°
2026-05-05 09:54 39.89349 22.99045 37079 ft 526 kts 146°
2026-05-05 09:55 39.83307 23.04411 37063 ft 526 kts 146°
2026-05-05 09:55 39.77278 23.09753 37076 ft 527 kts 146°
2026-05-05 09:56 39.71216 23.15114 37079 ft 527 kts 146°
2026-05-05 09:56 39.65148 23.20468 37083 ft 527 kts 146°
2026-05-05 09:57 39.59077 23.25813 37080 ft 526 kts 146°
2026-05-05 09:57 39.53018 23.31137 37077 ft 526 kts 146°
2026-05-05 09:58 39.50484 23.33360 37082 ft 526 kts 146°
2026-05-05 10:12 39.50456 23.33384 37079 ft 526 kts 146°
2026-05-05 10:13 39.45864 23.37407 37082 ft 526 kts 146°
2026-05-05 10:13 39.39807 23.42705 37081 ft 526 kts 146°
2026-05-05 10:14 39.33756 23.47986 36511 ft 531 kts 146°
2026-05-05 10:14 39.30683 23.50664 35789 ft 531 kts 146°
2026-05-05 10:14 39.27664 23.53292 35038 ft 531 kts 146°
2026-05-05 10:15 39.24560 23.55991 34229 ft 532 kts 146°
2026-05-05 10:15 39.21469 23.58510 33306 ft 533 kts 152°
2026-05-05 10:15 39.18059 23.60524 32398 ft 533 kts 160°
2026-05-05 10:15 39.14580 23.61954 31501 ft 532 kts 167°
2026-05-05 10:16 39.10965 23.62843 30954 ft 523 kts 175°
2026-05-05 10:16 39.07371 23.63303 30393 ft 517 kts 177°
2026-05-05 10:16 39.03803 23.63742 29796 ft 513 kts 176°
2026-05-05 10:16 39.00264 23.64216 29179 ft 508 kts 176°
2026-05-05 10:17 38.96773 23.64723 28633 ft 502 kts 175°
2026-05-05 10:17 38.93321 23.65239 28080 ft 498 kts 175°
2026-05-05 10:17 38.89894 23.65750 27502 ft 493 kts 175°
2026-05-05 10:17 38.86494 23.66254 26958 ft 489 kts 175°
2026-05-05 10:18 38.83131 23.66751 26412 ft 485 kts 175°
2026-05-05 10:18 38.79798 23.67241 25891 ft 481 kts 175°
2026-05-05 10:18 38.76486 23.67728 25355 ft 477 kts 175°
2026-05-05 10:18 38.73199 23.68210 24847 ft 474 kts 175°
2026-05-05 10:19 38.69931 23.68689 24269 ft 472 kts 175°
2026-05-05 10:19 38.66678 23.69165 23770 ft 468 kts 175°
2026-05-05 10:19 38.63442 23.69639 23104 ft 466 kts 175°
2026-05-05 10:19 38.60229 23.70111 22564 ft 462 kts 175°
2026-05-05 10:20 38.57048 23.70576 22027 ft 459 kts 175°
2026-05-05 10:20 38.53999 23.71020 21448 ft 457 kts 175°
2026-05-05 10:20 38.50885 23.71474 20896 ft 455 kts 175°
2026-05-05 10:20 38.47744 23.71932 20356 ft 452 kts 175°
2026-05-05 10:21 38.44634 23.72385 19828 ft 449 kts 175°
2026-05-05 10:21 38.41542 23.72836 19312 ft 446 kts 175°
2026-05-05 10:21 38.38463 23.73284 18776 ft 443 kts 175°
2026-05-05 10:21 38.35406 23.73728 18226 ft 441 kts 175°
2026-05-05 10:22 38.32365 23.74170 17641 ft 438 kts 175°
2026-05-05 10:22 38.29345 23.74608 17099 ft 434 kts 175°
2026-05-05 10:22 38.26374 23.75040 16563 ft 422 kts 175°
2026-05-05 10:22 38.23514 23.75455 16062 ft 404 kts 175°
2026-05-05 10:23 38.20769 23.75854 15580 ft 391 kts 175°
2026-05-05 10:23 38.18107 23.76056 15105 ft 377 kts 187°
2026-05-05 10:23 38.15658 23.75243 14657 ft 362 kts 207°
2026-05-05 10:23 38.13541 23.73592 14246 ft 355 kts 217°
2026-05-05 10:24 38.11505 23.71824 13610 ft 355 kts 216°
2026-05-05 10:24 38.09467 23.70090 12746 ft 354 kts 216°
2026-05-05 10:24 38.07389 23.68335 11974 ft 362 kts 215°
2026-05-05 10:24 38.05302 23.66578 11517 ft 362 kts 215°
2026-05-05 10:25 38.03201 23.64814 11048 ft 363 kts 215°
2026-05-05 10:25 38.01115 23.63067 10886 ft 355 kts 214°
2026-05-05 10:25 37.99077 23.61360 10726 ft 345 kts 214°
2026-05-05 10:25 37.97110 23.59713 10572 ft 335 kts 214°
2026-05-05 10:26 37.95190 23.58108 10472 ft 325 kts 214°
2026-05-05 10:26 37.93334 23.56558 10316 ft 316 kts 214°
2026-05-05 10:26 37.91517 23.55040 10181 ft 307 kts 214°
2026-05-05 10:26 37.89762 23.53575 10021 ft 299 kts 214°
2026-05-05 10:27 37.88024 23.52125 9649 ft 299 kts 214°
2026-05-05 10:27 37.86316 23.50702 9341 ft 297 kts 214°
2026-05-05 10:27 37.84596 23.49270 9011 ft 295 kts 214°
2026-05-05 10:27 37.82883 23.47845 8661 ft 295 kts 214°
2026-05-05 10:28 37.81098 23.46619 8263 ft 290 kts 196°
2026-05-05 10:28 37.79124 23.46551 8073 ft 281 kts 163°
2026-05-05 10:28 37.77441 23.47636 8012 ft 268 kts 138°
2026-05-05 10:28 37.76240 23.49437 7861 ft 273 kts 114°
2026-05-05 10:29 37.75765 23.51705 7568 ft 267 kts 94°
2026-05-05 10:29 37.75594 23.54042 7270 ft 266 kts 93°
2026-05-05 10:29 37.75419 23.56366 6980 ft 265 kts 93°
2026-05-05 10:29 37.75240 23.58684 6668 ft 265 kts 94°
2026-05-05 10:30 37.75055 23.60984 6362 ft 263 kts 94°
2026-05-05 10:30 37.74865 23.63265 6071 ft 260 kts 94°
2026-05-05 10:30 37.74675 23.65504 5678 ft 261 kts 95°
2026-05-05 10:30 37.74478 23.67801 5244 ft 264 kts 95°
2026-05-05 10:31 37.74280 23.70107 4871 ft 263 kts 95°
2026-05-05 10:31 37.74164 23.72390 4419 ft 259 kts 84°
2026-05-05 10:31 37.74769 23.74514 3887 ft 259 kts 52°
2026-05-05 10:31 37.75972 23.76153 3547 ft 254 kts 43°
2026-05-05 10:32 37.77233 23.77644 3388 ft 244 kts 39°
2026-05-05 10:32 37.78384 23.78818 3302 ft 233 kts 36°
2026-05-05 10:32 37.79649 23.80018 3206 ft 221 kts 34°
2026-05-05 10:32 37.80810 23.81112 3098 ft 201 kts 34°
2026-05-05 10:33 37.81864 23.82111 2828 ft 188 kts 34°
2026-05-05 10:33 37.82860 23.83060 2597 ft 173 kts 34°
2026-05-05 10:33 37.83772 23.83923 2350 ft 156 kts 34°
2026-05-05 10:33 37.84630 23.84737 2126 ft 152 kts 34°
2026-05-05 10:34 37.85505 23.85568 1979 ft 164 kts 35°
2026-05-05 10:34 37.86410 23.86429 1734 ft 162 kts 34°
2026-05-05 10:34 37.87266 23.87228 1466 ft 156 kts 33°
2026-05-05 10:34 37.88132 23.88039 1260 ft 156 kts 34°
2026-05-05 10:35 37.88962 23.88854 1082 ft 152 kts 36°
2026-05-05 10:35 37.89796 23.89630 902 ft 148 kts 37°
2026-05-05 10:35 37.90601 23.90426 720 ft 145 kts 39°
2026-05-05 10:35 37.91389 23.91163 508 ft 146 kts 41°
2026-05-05 10:36 37.92200 23.91937 376 ft 149 kts 43°
2026-05-05 10:36 37.92949 23.92661 302 ft 133 kts 36°
2026-05-05 10:36 37.93588 23.93257 299 ft 81 kts 37°
2026-05-05 10:36 37.93828 23.93493 300 ft 37 kts 43°
2026-05-05 10:37 37.93928 23.93685 303 ft 18 kts 64°
2026-05-05 10:37 37.93934 23.93802 305 ft 18 kts 124°
2026-05-05 10:37 37.93877 23.93808 308 ft 6 kts 215°
2026-05-05 10:37 37.93839 23.93774 306 ft 7 kts 215°
2026-05-05 10:38 37.93800 23.93739 308 ft 7 kts 216°
2026-05-05 10:38 37.93761 23.93701 308 ft 7 kts 217°
2026-05-05 10:38 37.93721 23.93663 306 ft 8 kts 217°
2026-05-05 10:38 37.93666 23.93610 306 ft 11 kts 217°
2026-05-05 10:39 37.93608 23.93554 307 ft 11 kts 217°
2026-05-05 10:39 37.93588 23.93535 307 ft 0 kts 217°
2026-05-05 10:39 37.93586 23.93533 307 ft 1 kts 217°
2026-05-05 10:40 37.93572 23.93519 307 ft 7 kts 217°
2026-05-05 10:40 37.93541 23.93491 308 ft 8 kts 216°
2026-05-05 10:40 37.93498 23.93452 307 ft 8 kts 216°
2026-05-05 10:40 37.93445 23.93433 306 ft 8 kts 170°
2026-05-05 10:41 37.93396 23.93495 307 ft 13 kts 127°
2026-05-05 10:41 37.93339 23.93592 309 ft 16 kts 126°
2026-05-05 10:41 37.93256 23.93736 310 ft 22 kts 126°
2026-05-05 10:41 37.93164 23.93887 309 ft 22 kts 128°
2026-05-05 10:42 37.93167 23.94125 308 ft 16 kts 40°
2026-05-05 10:42 37.93257 23.94209 309 ft 16 kts 36°
2026-05-05 10:42 37.93258 23.94331 308 ft 16 kts 128°
2026-05-05 10:43 37.93189 23.94444 310 ft 16 kts 126°
2026-05-05 10:43 37.93188 23.94564 308 ft 16 kts 39°
2026-05-05 10:43 37.93274 23.94650 309 ft 16 kts 36°
2026-05-05 10:43 37.93361 23.94732 309 ft 16 kts 36°
2026-05-05 10:44 37.93440 23.94807 308 ft 11 kts 37°
2026-05-05 10:44 37.93481 23.94798 307 ft 4 kts 310°
2026-05-05 10:44 37.93501 23.94766 309 ft 5 kts 307°
2026-05-05 10:44 37.93507 23.94755 308 ft 2 kts 306°
2026-05-05 10:45 37.93512 23.94747 310 ft 0 kts 306°